Time,TemperatureF,DewpointF,PressureIn,WindDirection,WindDirectionDegrees,WindSpeedMPH,WindSpeedGustMPH,Humidity,HourlyPrecipIn,Conditions,Clouds,dailyrainin,SoftwareType,DateUTC
2013-03-01 00:13:00,46.7,46.0,30.44,West,276,0.0,0.0,97,0.00,,,0.00,weatherlink.com 1.10,2013-03-01 08:13:00,
2013-03-01 00:28:00,46.7,46.0,30.44,West,277,0.0,0.0,97,0.00,,,0.00,weatherlink.com 1.10,2013-03-01 08:28:00,
2013-03-01 00:43:00,46.5,46.0,30.44,West,277,0.0,0.0,97,0.00,,,0.00,weatherlink.com 1.10,2013-03-01 08:43:00,
2013-03-01 00:58:00,46.4,46.0,30.44,West,277,0.0,0.0,97,0.00,,,0.00,weatherlink.com 1.10,2013-03-01 08:58:00,
2013-03-01 01:13:00,46.5,46.0,30.44,West,277,0.0,0.0,98,0.00,,,0.00,weatherlink.com 1.10,2013-03-01 09:13:00,
2013-03-01 01:28:00,46.5,46.0,30.44,West,277,0.0,0.0,98,0.00,,,0.00,weatherlink.com 1.10,2013-03-01 09:28:00,
2013-03-01 01:43:00,46.4,46.0,30.44,West,277,0.0,0.0,98,0.00,,,0.00,weatherlink.com 1.10,2013-03-01 09:43:00,
2013-03-01 01:58:00,46.3,46.0,30.45,West,277,0.0,0.0,98,0.00,,,0.00,weatherlink.com 1.10,2013-03-01 09:58:00,
2013-03-01 02:14:00,45.9,45.0,30.45,North,354,0.0,0.0,98,0.00,,,0.00,weatherlink.com 1.10,2013-03-01 10:14:00,
2013-03-01 02:29:00,45.6,45.0,30.45,North,354,0.0,0.0,98,0.00,,,0.00,weatherlink.com 1.10,2013-03-01 10:29:00,
2013-03-01 02:44:00,45.2,45.0,30.45,North,354,0.0,0.0,98,0.00,,,0.00,weatherlink.com 1.10,2013-03-01 10:44:00,
2013-03-01 02:59:00,45.1,45.0,30.45,North,354,0.0,0.0,98,0.00,,,0.00,weatherlink.com 1.10,2013-03-01 10:59:00,
2013-03-01 03:14:00,45.0,45.0,30.44,North,354,0.0,0.0,98,0.00,,,0.00,weatherlink.com 1.10,2013-03-01 11:14:00,
2013-03-01 03:29:00,44.9,44.0,30.45,North,354,0.0,0.0,98,0.00,,,0.00,weatherlink.com 1.10,2013-03-01 11:29:00,
2013-03-01 03:44:00,44.8,44.0,30.45,North,354,0.0,0.0,98,0.00,,,0.00,weatherlink.com 1.10,2013-03-01 11:44:00,
2013-03-01 03:59:00,44.7,44.0,30.45,NNE,32,0.0,0.0,98,0.00,,,0.00,weatherlink.com 1.10,2013-03-01 11:59:00,
2013-03-01 04:14:00,44.5,44.0,30.44,NNE,33,0.0,0.0,98,0.00,,,0.00,weatherlink.com 1.10,2013-03-01 12:14:00,
2013-03-01 04:29:00,44.2,44.0,30.44,NNE,33,0.0,0.0,98,0.00,,,0.00,weatherlink.com 1.10,2013-03-01 12:29:00,
2013-03-01 04:44:00,44.1,44.0,30.44,NE,34,0.0,0.0,98,0.00,,,0.00,weatherlink.com 1.10,2013-03-01 12:44:00,
2013-03-01 04:59:00,43.9,43.0,30.44,NNE,33,0.0,1.0,98,0.00,,,0.00,weatherlink.com 1.10,2013-03-01 12:59:00,
2013-03-01 05:29:00,44.0,44.0,30.43,NNE,33,0.0,0.0,98,0.00,,,0.00,weatherlink.com 1.10,2013-03-01 13:29:00,
2013-03-01 05:44:00,43.9,43.0,30.43,NE,34,1.0,1.0,98,0.00,,,0.00,weatherlink.com 1.10,2013-03-01 13:44:00,
2013-03-01 05:59:00,43.7,43.0,30.43,NNE,23,0.0,0.0,98,0.00,,,0.00,weatherlink.com 1.10,2013-03-01 13:59:00,
2013-03-01 06:14:00,43.6,43.0,30.43,NNE,23,0.0,0.0,98,0.00,,,0.00,weatherlink.com 1.10,2013-03-01 14:14:00,
2013-03-01 06:29:00,43.4,43.0,30.42,NNE,23,0.0,0.0,98,0.00,,,0.00,weatherlink.com 1.10,2013-03-01 14:29:00,
2013-03-01 06:44:00,43.4,43.0,30.42,NNE,23,0.0,0.0,98,0.00,,,0.00,weatherlink.com 1.10,2013-03-01 14:44:00,
2013-03-01 06:59:00,43.4,43.0,30.42,NNE,23,0.0,0.0,98,0.00,,,0.00,weatherlink.com 1.10,2013-03-01 14:59:00,
2013-03-01 07:15:00,43.1,43.0,30.41,NNE,23,0.0,0.0,98,0.00,,,0.00,weatherlink.com 1.10,2013-03-01 15:15:00,
2013-03-01 07:29:00,43.0,43.0,30.41,NNE,23,0.0,0.0,98,0.00,,,0.00,weatherlink.com 1.10,2013-03-01 15:29:00,
2013-03-01 07:44:00,42.8,42.0,30.41,NNE,23,0.0,0.0,98,0.00,,,0.00,weatherlink.com 1.10,2013-03-01 15:44:00,
2013-03-01 07:59:00,42.9,42.0,30.41,NNE,23,0.0,0.0,98,0.00,,,0.00,weatherlink.com 1.10,2013-03-01 15:59:00,
2013-03-01 08:14:00,43.2,43.0,30.42,NNE,23,0.0,0.0,98,0.00,,,0.00,weatherlink.com 1.10,2013-03-01 16:14:00,
2013-03-01 08:29:00,43.4,43.0,30.42,NNE,23,0.0,0.0,99,0.00,,,0.00,weatherlink.com 1.10,2013-03-01 16:29:00,
2013-03-01 08:44:00,43.6,43.0,30.42,NNE,23,0.0,0.0,99,0.00,,,0.00,weatherlink.com 1.10,2013-03-01 16:44:00,
2013-03-01 08:59:00,44.0,44.0,30.42,NNE,23,0.0,0.0,99,0.00,,,0.00,weatherlink.com 1.10,2013-03-01 16:59:00,
2013-03-01 09:14:00,45.4,45.0,30.42,NNE,23,0.0,0.0,99,0.00,,,0.00,weatherlink.com 1.10,2013-03-01 17:14:00,
2013-03-01 09:29:00,45.9,46.0,30.41,NNE,23,0.0,0.0,99,0.00,,,0.00,weatherlink.com 1.10,2013-03-01 17:29:00,
2013-03-01 09:44:00,47.1,47.0,30.41,NNE,23,0.0,0.0,99,0.00,,,0.00,weatherlink.com 1.10,2013-03-01 17:44:00,
2013-03-01 09:59:00,48.6,48.0,30.41,NNE,23,0.0,0.0,99,0.00,,,0.00,weatherlink.com 1.10,2013-03-01 17:59:00,
2013-03-01 10:14:00,50.4,50.0,30.41,NNE,23,0.0,0.0,99,0.00,,,0.00,weatherlink.com 1.10,2013-03-01 18:14:00,
2013-03-01 10:29:00,51.9,52.0,30.40,NNE,23,0.0,0.0,99,0.00,,,0.00,weatherlink.com 1.10,2013-03-01 18:29:00,
2013-03-01 10:45:00,53.5,53.0,30.39,NNE,23,0.0,0.0,99,0.00,,,0.00,weatherlink.com 1.10,2013-03-01 18:45:00,
2013-03-01 10:59:00,55.3,54.0,30.39,NNE,23,0.0,0.0,95,0.00,,,0.00,weatherlink.com 1.10,2013-03-01 18:59:00,
2013-03-01 11:15:00,56.9,55.0,30.39,NNE,23,0.0,0.0,92,0.00,,,0.00,weatherlink.com 1.10,2013-03-01 19:15:00,
2013-03-01 11:30:00,58.4,56.0,30.38,East,86,0.0,0.0,90,0.00,,,0.00,weatherlink.com 1.10,2013-03-01 19:30:00,
2013-03-01 11:45:00,60.0,56.0,30.37,ESE,120,0.0,0.0,86,0.00,,,0.00,weatherlink.com 1.10,2013-03-01 19:45:00,
2013-03-01 12:00:00,61.6,56.0,30.36,ESE,102,0.0,1.0,81,0.00,,,0.00,weatherlink.com 1.10,2013-03-01 20:00:00,
2013-03-01 12:15:00,62.9,55.0,30.35,ESE,110,0.0,0.0,75,0.00,,,0.00,weatherlink.com 1.10,2013-03-01 20:15:00,
2013-03-01 12:30:00,63.8,56.0,30.34,ESE,107,0.0,0.0,76,0.00,,,0.00,weatherlink.com 1.10,2013-03-01 20:30:00,
2013-03-01 12:45:00,65.0,56.0,30.33,ESE,120,0.0,0.0,73,0.00,,,0.00,weatherlink.com 1.10,2013-03-01 20:45:00,
2013-03-01 13:00:00,66.1,56.0,30.32,NNW,333,0.0,0.0,71,0.00,,,0.00,weatherlink.com 1.10,2013-03-01 21:00:00,
2013-03-01 13:15:00,67.0,56.0,30.31,SE,124,0.0,2.0,69,0.00,,,0.00,weatherlink.com 1.10,2013-03-01 21:15:00,
2013-03-01 13:30:00,66.7,56.0,30.30,ESE,113,0.0,1.0,69,0.00,,,0.00,weatherlink.com 1.10,2013-03-01 21:30:00,
2013-03-01 13:45:00,66.4,57.0,30.29,ESE,115,0.0,0.0,71,0.00,,,0.00,weatherlink.com 1.10,2013-03-01 21:45:00,
2013-03-01 14:00:00,66.5,56.0,30.28,South,172,0.0,0.0,70,0.00,,,0.00,weatherlink.com 1.10,2013-03-01 22:00:00,
2013-03-01 14:15:00,66.5,55.0,30.28,SSE,165,0.0,2.0,67,0.00,,,0.00,weatherlink.com 1.10,2013-03-01 22:15:00,
2013-03-01 14:30:00,66.1,56.0,30.27,SE,134,0.0,1.0,69,0.00,,,0.00,weatherlink.com 1.10,2013-03-01 22:30:00,
2013-03-01 14:45:00,65.5,55.0,30.27,South,170,0.0,0.0,70,0.00,,,0.00,weatherlink.com 1.10,2013-03-01 22:45:00,
2013-03-01 15:00:00,65.0,55.0,30.27,South,172,0.0,0.0,70,0.00,,,0.00,weatherlink.com 1.10,2013-03-01 23:00:00,
2013-03-01 15:15:00,64.5,56.0,30.27,South,172,0.0,0.0,73,0.00,,,0.00,weatherlink.com 1.10,2013-03-01 23:15:00,
2013-03-01 15:30:00,64.2,56.0,30.27,South,172,0.0,0.0,75,0.00,,,0.00,weatherlink.com 1.10,2013-03-01 23:30:00,
2013-03-01 15:45:00,63.3,56.0,30.26,NNW,340,0.0,0.0,77,0.00,,,0.00,weatherlink.com 1.10,2013-03-01 23:45:00,
2013-03-01 16:01:00,62.0,55.0,30.26,NNW,332,0.0,0.0,79,0.00,,,0.00,weatherlink.com 1.10,2013-03-02 00:01:00,
2013-03-01 16:31:00,60.1,55.0,30.25,NNW,338,0.0,0.0,82,0.00,,,0.00,weatherlink.com 1.10,2013-03-02 00:31:00,
2013-03-01 16:46:00,59.7,54.0,30.25,North,359,0.0,0.0,82,0.00,,,0.00,weatherlink.com 1.10,2013-03-02 00:46:00,
2013-03-01 17:01:00,59.3,54.0,30.25,North,359,0.0,0.0,83,0.00,,,0.00,weatherlink.com 1.10,2013-03-02 01:01:00,
2013-03-01 17:16:00,59.0,54.0,30.25,North,358,0.0,0.0,84,0.00,,,0.00,weatherlink.com 1.10,2013-03-02 01:16:00,
2013-03-01 17:31:00,58.4,54.0,30.24,North,359,0.0,0.0,85,0.00,,,0.00,weatherlink.com 1.10,2013-03-02 01:31:00,
2013-03-01 17:46:00,57.9,54.0,30.24,North,358,0.0,0.0,85,0.00,,,0.00,weatherlink.com 1.10,2013-03-02 01:46:00,
2013-03-01 18:01:00,57.3,53.0,30.24,North,359,0.0,0.0,86,0.00,,,0.00,weatherlink.com 1.10,2013-03-02 02:01:00,
2013-03-01 18:16:00,56.7,53.0,30.25,North,358,0.0,0.0,86,0.00,,,0.00,weatherlink.com 1.10,2013-03-02 02:16:00,
2013-03-01 18:31:00,56.1,52.0,30.25,North,359,0.0,0.0,87,0.00,,,0.00,weatherlink.com 1.10,2013-03-02 02:31:00,
2013-03-01 18:46:00,55.4,52.0,30.25,North,358,0.0,0.0,88,0.00,,,0.00,weatherlink.com 1.10,2013-03-02 02:46:00,
2013-03-01 19:01:00,54.7,52.0,30.25,North,359,0.0,0.0,89,0.00,,,0.00,weatherlink.com 1.10,2013-03-02 03:01:00,
2013-03-01 19:16:00,54.1,51.0,30.25,North,359,0.0,0.0,90,0.00,,,0.00,weatherlink.com 1.10,2013-03-02 03:16:00,
2013-03-01 19:31:00,53.5,51.0,30.26,North,359,0.0,0.0,90,0.00,,,0.00,weatherlink.com 1.10,2013-03-02 03:31:00,
2013-03-01 19:46:00,52.9,50.0,30.26,North,359,0.0,0.0,91,0.00,,,0.00,weatherlink.com 1.10,2013-03-02 03:46:00,
2013-03-01 20:01:00,52.4,50.0,30.26,North,358,0.0,0.0,91,0.00,,,0.00,weatherlink.com 1.10,2013-03-02 04:01:00,
2013-03-01 20:16:00,51.9,49.0,30.26,North,359,0.0,0.0,91,0.00,,,0.00,weatherlink.com 1.10,2013-03-02 04:16:00,
2013-03-01 20:31:00,51.4,49.0,30.26,North,358,0.0,0.0,92,0.00,,,0.00,weatherlink.com 1.10,2013-03-02 04:31:00,
2013-03-01 20:46:00,50.9,49.0,30.26,North,358,0.0,0.0,93,0.00,,,0.00,weatherlink.com 1.10,2013-03-02 04:46:00,
2013-03-01 21:02:00,50.5,49.0,30.26,North,359,0.0,0.0,93,0.00,,,0.00,weatherlink.com 1.10,2013-03-02 05:02:00,
2013-03-01 21:17:00,50.1,48.0,30.26,North,358,0.0,0.0,93,0.00,,,0.00,weatherlink.com 1.10,2013-03-02 05:17:00,
2013-03-01 21:31:00,49.7,48.0,30.26,North,358,0.0,0.0,94,0.00,,,0.00,weatherlink.com 1.10,2013-03-02 05:31:00,
2013-03-01 21:47:00,49.4,48.0,30.26,North,359,0.0,0.0,94,0.00,,,0.00,weatherlink.com 1.10,2013-03-02 05:47:00,
2013-03-01 22:02:00,49.0,47.0,30.26,North,358,0.0,0.0,94,0.00,,,0.00,weatherlink.com 1.10,2013-03-02 06:02:00,
2013-03-01 22:17:00,48.6,47.0,30.26,North,358,0.0,0.0,94,0.00,,,0.00,weatherlink.com 1.10,2013-03-02 06:17:00,
2013-03-01 22:32:00,48.3,47.0,30.26,North,358,0.0,0.0,95,0.00,,,0.00,weatherlink.com 1.10,2013-03-02 06:32:00,
2013-03-01 22:47:00,47.8,47.0,30.26,North,358,0.0,0.0,95,0.00,,,0.00,weatherlink.com 1.10,2013-03-02 06:47:00,
2013-03-01 23:02:00,47.4,46.0,30.26,North,359,0.0,0.0,95,0.00,,,0.00,weatherlink.com 1.10,2013-03-02 07:02:00,
2013-03-01 23:17:00,47.2,46.0,30.26,North,358,0.0,0.0,95,0.00,,,0.00,weatherlink.com 1.10,2013-03-02 07:17:00,
2013-03-01 23:32:00,46.9,46.0,30.26,North,358,0.0,0.0,95,0.00,,,0.00,weatherlink.com 1.10,2013-03-02 07:32:00,
2013-03-01 23:47:00,46.7,46.0,30.26,North,358,0.0,0.0,96,0.00,,,0.00,weatherlink.com 1.10,2013-03-02 07:47:00,